DW1929 Weather Reports


time (UTC)temp
C
wind
direction
speed
KPH
gust
KPH
rain 1hr
cm
rain 24hr
cm
rain mn
cm
humidity
%
barometer
mb
20260509012042 22 313 0.0 0.0 0.00 0.74 0.76 95 1011.8
20260509011015 22 313 0.0 0.0 0.00 0.74 0.76 95 1011.5
20260509003718 22 305 0.0 3.2 0.00 0.74 0.76 95 1011.1
20260509002654 22 279 0.0 6.4 0.00 0.74 0.76 94 1011.0
20260509001651 22 5 1.6 12.9 0.00 0.74 0.76 94 1011.0
20260509000716 22 348 3.2 12.9 0.00 0.74 0.76 94 1011.2
20260508235717 21 344 3.2 11.3 0.10 0.74 0.76 94 1011.3
20260508234700 21 5 3.2 16.1 0.23 0.74 0.76 93 1011.2
20260508233713 22 190 8.0 32.2 1.50 0.66 0.69 92 1011.6
20260508232659 24 196 8.0 32.2 2.79 0.10 0.15 87 1011.8
20260508231645 26 104 4.8 19.3 0.00 0.10 0.10 87 1009.6
20260508230653 27 350 4.8 16.1 0.00 0.10 0.10 87 1009.6
20260508225703 27 39 4.8 16.1 0.00 0.10 0.10 85 1009.7
20260508223622 27 330 1.6 9.7 0.00 0.10 0.10 82 1009.4
20260508221515 28 315 3.2 14.5 0.00 0.10 0.10 82 1009.2
20260508220459 28 15 4.8 17.7 0.00 0.10 0.10 81 1009.3
20260508215458 28 0 6.4 19.3 0.00 0.10 0.10 80 1009.3
20260508214433 28 310 1.6 16.1 0.00 0.10 0.10 80 1009.5
20260508213418 28 355 3.2 16.1 0.00 0.10 0.10 80 1009.6
20260508212351 28 296 4.8 14.5 0.00 0.10 0.10 79 1009.5
20260508211353 28 343 4.8 14.5 0.00 0.10 0.10 80 1009.5
20260508210348 29 294 3.2 11.3 0.00 0.10 0.10 79 1009.6
20260508205323 29 334 1.6 9.7 0.00 0.10 0.10 77 1009.6
20260508204319 29 222 3.2 17.7 0.00 0.10 0.10 79 1009.5
20260508203246 29 17 4.8 17.7 0.00 0.10 0.10 78 1009.4
20260508202249 30 327 1.6 9.7 0.00 0.10 0.10 78 1009.4
20260508201241 29 350 3.2 12.9 0.00 0.10 0.10 80 1009.8
20260508200217 29 325 4.8 12.9 0.00 0.10 0.10 79 1009.9
20260508194116 30 290 4.8 16.1 0.00 0.10 0.10 78 1010.3
20260508193140 30 327 4.8 16.1 0.00 0.10 0.10 78 1010.4
20260508192159 30 311 3.2 16.1 0.00 0.10 0.10 78 1010.4
20260508191211 30 294 3.2 14.5 0.00 0.10 0.10 78 1010.6
20260508183916 30 24 4.8 11.3 0.00 0.10 0.10 78 1011.1
20260508182851 30 289 3.2 14.5 0.00 0.10 0.10 77 1011.1
20260508181827 30 327 4.8 17.7 0.00 0.10 0.10 78 1011.4
20260508180846 30 319 3.2 17.7 0.00 0.10 0.10 77 1011.6
20260508174633 30 312 1.6 9.7 0.00 0.10 0.10 78 1011.7
20260508173622 30 271 3.2 9.7 0.00 0.10 0.10 76 1011.8
20260508172547 31 323 1.6 4.8 0.00 0.10 0.10 69 1011.7
20260508171525 31 301 1.6 4.8 0.00 0.10 0.10 70 1011.8
20260508170508 30 174 0.0 6.4 0.00 0.10 0.10 73 1011.9
20260508165530 30 183 1.6 6.4 0.00 0.10 0.10 72 1012.0
20260508162307 30 167 1.6 8.0 0.00 0.10 0.10 73 1012.4
20260508161318 30 248 1.6 8.0 0.00 0.10 0.10 72 1012.6
20260508160339 30 230 1.6 8.0 0.00 0.10 0.10 74 1012.8
20260508155311 29 227 1.6 4.8 0.00 0.10 0.10 77 1013.0
20260508154241 29 194 1.6 4.8 0.00 0.10 0.10 78 1013.0
20260508153216 29 82 1.6 4.8 0.00 0.10 0.10 78 1013.1
20260508152222 28 157 0.0 4.8 0.00 0.10 0.10 79 1013.5
20260508151207 28 181 1.6 6.4 0.00 0.10 0.10 79 1013.4
20260508145133 28 194 1.6 8.0 0.00 0.10 0.10 82 1013.4
20260508144130 27 142 1.6 6.4 0.00 0.10 0.10 83 1013.4
20260508141941 27 139 1.6 8.0 0.00 0.10 0.10 86 1013.3
20260508140910 27 138 3.2 8.0 0.00 0.10 0.10 85 1013.2
20260508135857 26 147 1.6 6.4 0.00 0.10 0.10 87 1013.2
20260508134849 26 213 1.6 8.0 0.00 0.10 0.10 87 1013.1
20260508133831 26 135 1.6 8.0 0.00 0.10 0.10 88 1013.3
20260508132853 26 133 1.6 6.4 0.00 0.10 0.10 89 1013.2
20260508131837 25 153 0.0 4.8 0.00 0.10 0.10 90 1013.0
20260508130859 25 175 1.6 9.7 0.00 0.10 0.10 91 1013.1
20260508125903 25 180 0.0 8.0 0.00 0.10 0.10 92 1013.0
20260508123750 23 180 0.0 3.2 0.00 0.10 0.10 96 1012.8
20260508122801 23 120 0.0 0.0 0.00 0.10 0.10 96 1012.7
20260508120607 21 115 0.0 0.0 0.00 0.10 0.10 98 1012.6
20260508115631 21 163 0.0 0.0 0.00 0.10 0.10 97 1012.7
20260508114646 20 163 0.0 0.0 0.00 0.10 0.10 97 1012.5
20260508112609 18 163 0.0 0.0 0.00 0.10 0.10 96 1012.3
20260508111608 18 163 0.0 0.0 0.00 0.10 0.10 96 1012.2
20260508110536 18 163 0.0 0.0 0.00 0.10 0.10 95 1011.9
20260508105556 18 163 0.0 0.0 0.00 0.10 0.10 95 1011.9
20260508104552 18 163 0.0 0.0 0.00 0.10 0.10 95 1011.7
20260508103524 18 163 0.0 0.0 0.00 0.10 0.10 95 1011.7
20260508102545 18 163 0.0 0.0 0.00 0.10 0.10 95 1011.6
20260508101558 18 163 0.0 0.0 0.00 0.10 0.10 95 1011.5
20260508095500 18 163 0.0 0.0 0.00 0.10 0.10 95 1011.2
20260508094519 18 163 0.0 0.0 0.00 0.10 0.10 95 1011.0
20260508093529 18 163 0.0 0.0 0.00 0.10 0.10 95 1010.9
20260508092510 18 163 0.0 0.0 0.00 0.10 0.10 95 1011.0
20260508091529 19 163 0.0 0.0 0.00 0.10 0.10 95 1011.0
20260508085405 19 163 0.0 0.0 0.00 0.10 0.10 94 1010.9
20260508084342 19 163 0.0 0.0 0.00 0.10 0.10 94 1010.9
20260508083402 19 163 0.0 0.0 0.00 0.10 0.10 94 1011.0
20260508082346 20 163 0.0 0.0 0.00 0.10 0.10 94 1011.0
20260508081323 20 163 0.0 0.0 0.00 0.10 0.10 94 1011.1
20260508080258 20 163 0.0 0.0 0.00 0.10 0.10 94 1011.1
20260508075249 20 163 0.0 0.0 0.00 0.10 0.10 94 1011.1
20260508070956 20 163 0.0 0.0 0.00 0.10 0.10 93 1011.3
20260508070020 20 163 0.0 0.0 0.00 0.10 0.10 93 1011.2
20260508063947 20 163 0.0 0.0 0.15 0.10 0.10 91 1011.4
20260508061815 21 106 0.0 0.0 0.00 0.00 0.00 90 1011.3
20260508055721 21 136 0.0 0.0 0.00 0.00 0.00 88 1011.4
20260508053634 21 136 0.0 0.0 0.00 0.00 0.00 87 1011.5
20260508052626 21 136 0.0 0.0 0.00 0.00 0.00 87 1011.6
20260508051640 21 136 0.0 0.0 0.00 0.00 0.00 86 1011.6
20260508050622 21 136 0.0 0.0 0.00 0.00 0.00 86 1011.6
20260508045609 21 136 0.0 0.0 0.00 0.00 0.00 85 1011.7
20260508043524 22 136 0.0 0.0 0.00 0.00 0.00 83 1011.6
20260508042543 22 136 0.0 0.0 0.00 0.00 0.00 83 1011.7
20260508041601 22 136 0.0 0.0 0.00 0.00 0.00 82 1011.6
20260508040532 22 136 0.0 0.0 0.00 0.00 0.00 81 1011.6
20260508035517 22 136 0.0 0.0 0.00 0.00 0.00 81 1011.6
20260508034503 22 136 0.0 0.0 0.00 0.00 0.00 80 1011.7
20260508033433 22 136 0.0 0.0 0.00 0.00 0.00 79 1011.6
20260508032459 22 136 0.0 0.0 0.00 0.00 0.00 78 1011.4
20260508031505 22 136 0.0 0.0 0.00 0.00 0.00 77 1011.3
20260508030500 22 136 0.0 0.0 0.00 0.00 0.00 76 1011.2
20260508025522 22 136 0.0 0.0 0.00 0.00 0.00 74 1011.2
20260508024532 22 136 0.0 0.0 0.00 0.00 0.00 73 1011.2
20260508022358 23 136 0.0 0.0 0.00 0.00 0.00 72 1010.8
20260508021411 23 136 0.0 0.0 0.00 0.00 0.00 70 1010.8
20260508020429 23 136 0.0 0.0 0.00 0.00 0.00 68 1010.7
20260508015424 23 136 0.0 0.0 0.00 0.00 0.00 68 1010.5
20260508013221 24 136 0.0 0.0 0.00 0.00 0.00 66 1010.4
20260508012148 25 136 0.0 0.0 0.00 0.00 0.00 66 1010.3